Location: Dumpton Point
(51.3500°N, 1.4433°E)
Time: 10:00:19
(UTC+00:00)

Meteor 2-10 Rocket - Pass Details

Date: 09 April 2020
Orbit: 734 x 885 km, 81.2° (Epoch: 06 June)

Event Time Altitude Azimuth Distance (km) Brightness Sun altitude
Exits shadow 20:33:51 27° 120° (ESE) 1,472 4.4 -16.6°
Maximum altitude 20:35:21 32° 89° (E) 1,344 4.3 -16.8°
Drops below altitude 10° 20:40:08 10° 28° (NNE) 2,428 6.2 -17.4°
Sets 20:42:48 0° 19° (NNE) 3,392 7.1 -17.7°
